Regional Weather Roundup
Issued by NWS Cleveland, OH

Home | Current Version | Previous Version | Graphics & Text | Print | Product List | Glossary On
Versions: 1 2 3 4 5 6 7 8 9 10 11 12 13 14 15 16 17 18 19 20 21 22 23 24 25 26 27 28 29 30 31 32 33 34 35 36 37 38 39 40 41 42 43 44 45 46 47 48 49 50
000
ASUS41 KCLE 290810
RWRCLE
OHIO REGIONAL WEATHER ROUNDUP
NATIONAL WEATHER SERVICE WILMINGTON, OH
300 AM EST MON DEC 29 2014

NOTE: "FAIR" INDICATES FEW OR NO CLOUDS BELOW 12,000 FEET WITH NO
SIGNIFICANT WEATHER AND/OR OBSTRUCTIONS TO VISIBILITY.

OHZ001>008-015>018-024>027-034-035-043-044-290900-
   NORTHWEST OHIO

CITY           SKY/WX    TMP DP  RH WIND       PRES   REMARKS
DEFIANCE       CLEAR     24  20  84 CALM      30.25R FOG
FINDLAY        PTCLDY    26  21  81 NW6       30.23R WCI  19
TOLEDO EXPRESS CLEAR     22  19  89 CALM      30.24R
TOLEDO METCALF PTCLDY    26  20  77 NW5       30.25R WCI  20
LIMA           CLEAR     28  24  85 NW5       30.23R FOG     WCI  23
$$

OHZ009>014-019>023-028>033-038-089-290900-
   NORTHEAST OHIO

CITY           SKY/WX    TMP DP  RH WIND       PRES   REMARKS
CLE-HOPKINS    MOCLDY    29  27  92 SW5       30.23R WCI  24
CLE-LAKEFRONT  CLOUDY    35  25  66 NW10      30.21R WCI  27
CUY CO. ARPT   NOT AVBL
LORAIN-ELYRIA  CLOUDY    29  26  89 NW3       30.22R
ASHTABULA      CLOUDY    31  25  78 CALM      30.20R
AKRON-CANTON   PTCLDY    27  23  85 NW3       30.19R
WOOSTER        PTCLDY    27  24  89 CALM      30.21R
MANSFIELD      CLEAR     25  22  88 NW6       30.20R WCI  18
YOUNGSTOWN     CLOUDY    31  25  78 CALM      30.18R
$$

OHZ042-051>053-060>062-070>072-077>081-290900-
  SOUTHWEST OHIO

CITY           SKY/WX    TMP DP  RH WIND       PRES   REMARKS
CINC-COVINGTON PTCLDY    30  24  78 NE6       30.22R WCI  24
CINC-LUNKEN    CLOUDY    31  28  89 N3        30.26R
HAMILTON       CLEAR     24  22  91 CALM      30.25R
DAYTON         CLEAR     26  23  88 N6        30.23R FOG     WCI  19
WRIGHT-PAT AFB CLEAR     26  24  92 N3        30.23R
DAYTON GENERAL CLEAR     26  24  92 N7        30.21R WCI  18
WILMINGTON     PTCLDY    27  24  89 N6        30.20S FOG     WCI  20
$$

OHZ036-037-039>041-045>050-054>059-063>069-073>076-082>088-290900-
  CENTRAL AND SOUTHEAST OHIO

CITY           SKY/WX    TMP DP  RH WIND       PRES   REMARKS
COLUMBUS       PTCLDY    27  24  89 N5        30.21R WCI  22
OSU AIRPORT    CLEAR     26  23  88 N5        30.21R WCI  20
BOLTON FIELD   CLEAR     28  26  92 N5        30.22S WCI  22
RICKENBACK AFB PTCLDY    29  26  87 N3        30.22S
NEWARK         PTCLDY    30  25  81 N3        30.20R
MARION         CLEAR     26  23  88 NW6       30.22R WCI  19
LANCASTER      MOCLDY    31  27  85 NW5       30.21S WCI  26
ZANESVILLE     MOCLDY    30  26  85 N3        30.20R
NEW PHILLY     MOCLDY    31  26  82 NW3       30.22R
$$


USA.gov is the U.S. government's official web portal to all federal, state and local government web resources and services.